Spokane Fairchild, WA
on Sunday, November 4, 2012

Sunday
Previous Day Next Day
Daily Summary
 ActualAverage (KGEG)Record (KGEG)
Temperature
Mean Temperature °F 40°F  
Max Temperature 56°F 47°F 69°F (1891)
Min Temperature 46°F 33°F 11°F (2002)
Degree Days
Heating Degree Days 14 25  
Month to date heating degree days 98  
Since 1 July heating degree days 886  
Cooling Degree Days 0 0  
Month to date cooling degree days 0  
Year to date cooling degree days 450  
Growing Degree Days2 (Base °F )  
Moisture
Dew Point 51°F   
Average Humidity 100    
Maximum Humidity 100    
Minimum Humidity 100    
Precipitation
Precipitation 0.01 in 0.06 in 0.72 in (1985)
Month to date precipitation 0.25  
Year to date precipitation 12.21  
Snow
Snow 0.00 in 0.10 in 9.00 in (1973)
Month to date snowfall 0.3  
Since 1 July snowfall 0.4  
Since 1 September snowfall 0.4  
Snow Depth in   
Wind
Wind Speed 7 mph   
Max Wind Speed 14 mph   
Max Gust Speed 22 mph   
Visibility 10 miles   
Events Rain   

Key: T is trace of precipitation, MM is missing value
Source: NWS Daily Summary
Time(PST)TemperatureDew PointHumidity Pressure Visibility Wind DirectionWind SpeedGust SpeedPrecipitationEvents Conditions
12:01 AM 48.2°F 48.2°F 100% 30.16 in 10.0 miles South 13.8 mph 21.9 mph N/A   Mostly Cloudy
12:55 AM 48.4°F 48.4°F 100% 30.19 in 10.0 miles SSW 11.5 mph - N/A   Mostly Cloudy
1:55 AM 48.2°F 48.2°F 100% 30.20 in 10.0 miles SSW 9.2 mph - N/A   Partly Cloudy
1:55 AM 47.7°F 47.7°F 100% 30.22 in 10.0 miles SSW 4.6 mph - N/A   Overcast
2:55 AM 47.5°F 47.5°F 100% 30.23 in 10.0 miles Calm Calm - N/A   Overcast
3:55 AM 46.8°F 46.8°F 100% 30.23 in 10.0 miles South 5.8 mph - N/A   Overcast
4:55 AM 46.6°F 46.6°F 100% 30.25 in 10.0 miles SSE 4.6 mph - N/A   Partly Cloudy
5:02 AM 46.4°F 46.4°F 100% 30.25 in 10.0 miles SSE 4.6 mph - N/A   Partly Cloudy
5:11 AM 46.4°F 46.4°F 100% 30.26 in 10.0 miles SSE 3.5 mph - N/A   Mostly Cloudy
5:16 AM 46.4°F 46.4°F 100% 30.26 in 10.0 miles Calm Calm - N/A   Light Drizzle
5:31 AM 46.4°F 46.4°F 100% 30.27 in 10.0 miles SSW 3.5 mph - N/A Rain Light Rain
5:34 AM 46.4°F 46.4°F 100% 30.27 in 10.0 miles SSW 3.5 mph - N/A Rain Light Rain
5:37 AM 46.4°F 46.4°F 100% 30.27 in 10.0 miles SSW 3.5 mph - N/A Rain Light Rain
5:40 AM 46.4°F 46.4°F 100% 30.27 in 10.0 miles SSW 4.6 mph - N/A Rain Light Rain
5:47 AM 46.4°F 46.4°F 100% 30.27 in 10.0 miles South 5.8 mph - N/A Rain Light Rain
5:49 AM 46.4°F 46.4°F 100% 30.27 in 10.0 miles South 5.8 mph - N/A Rain Light Rain
5:55 AM 46.9°F 46.9°F 100% 30.27 in 10.0 miles South 4.6 mph - 0.01 in Rain Light Rain
6:39 AM 46.4°F 46.4°F 100% 30.28 in 7.0 miles SSE 4.6 mph - N/A   Overcast
6:55 AM 46.8°F 46.8°F 100% 30.29 in 10.0 miles SSE 3.5 mph - 0.00 in   Overcast
7:55 AM 47.7°F 47.7°F 100% 30.32 in 10.0 miles SSE 4.6 mph - N/A   Mostly Cloudy
8:55 AM 50.0°F 50.0°F 100% 30.31 in 10.0 miles SSE 6.9 mph - N/A   Scattered Clouds
9:05 AM 50.0°F 50.0°F 100% 30.31 in 10.0 miles SSE 6.9 mph - N/A   Scattered Clouds
9:55 AM 51.6°F 51.6°F 100% 30.32 in 10.0 miles SSE 5.8 mph - N/A   Overcast
10:05 AM 51.8°F 51.8°F 100% 30.33 in 10.0 miles SSE 8.1 mph - N/A   Overcast
10:42 AM 53.6°F 53.6°F 100% 30.32 in 10.0 miles SSE 10.4 mph - N/A   Overcast
10:55 AM 53.4°F 53.4°F 100% 30.33 in 10.0 miles SSE 8.1 mph - N/A   Overcast
11:05 AM 53.6°F 53.6°F 100% 30.33 in 10.0 miles South 9.2 mph - N/A   Overcast
11:19 AM 55.4°F 55.4°F 100% 30.33 in 10.0 miles South 6.9 mph - N/A   Overcast
11:50 AM 55.4°F 55.4°F 100% 30.32 in 10.0 miles South 8.1 mph - N/A   Overcast
11:55 AM 54.9°F 54.9°F 100% 30.32 in 10.0 miles South 6.9 mph - N/A   Overcast
12:55 PM 56.3°F 56.3°F 100% 30.31 in 10.0 miles South 9.2 mph - N/A   Scattered Clouds
1:11 PM 57.2°F 57.2°F 100% 30.32 in 10.0 miles South 8.1 mph - N/A   Mostly Cloudy
1:55 PM 56.5°F 56.5°F 100% 30.32 in 10.0 miles South 10.4 mph - N/A   Overcast
2:33 PM 57.2°F 57.2°F 100% 30.33 in 10.0 miles South 5.8 mph - N/A   Overcast
2:42 PM 57.2°F 57.2°F 100% 30.33 in 10.0 miles SSW 6.9 mph - N/A   Overcast
2:55 PM 56.3°F 56.3°F 100% 30.33 in 10.0 miles South 5.8 mph - N/A   Overcast
3:49 PM 55.4°F 55.4°F 100% 30.33 in 10.0 miles South 5.8 mph - N/A   Overcast
3:55 PM 55.6°F 55.6°F 100% 30.33 in 10.0 miles South 3.5 mph - N/A   Overcast
4:55 PM 54.1°F 54.1°F 100% 30.32 in 10.0 miles SSE 5.8 mph - N/A   Overcast
5:09 PM 53.6°F 53.6°F 100% 30.31 in 10.0 miles SE 5.8 mph - N/A   Overcast
5:55 PM 53.4°F 53.4°F 100% 30.30 in 10.0 miles SE 6.9 mph - N/A   Mostly Cloudy
6:39 PM 53.6°F 53.6°F 100% 30.32 in 10.0 miles South 6.9 mph - N/A   Overcast
6:55 PM 52.9°F 52.9°F 100% 30.31 in 10.0 miles SSE 8.1 mph - N/A   Overcast
7:03 PM 53.6°F 53.6°F 100% 30.32 in 10.0 miles SSE 5.8 mph - N/A   Mostly Cloudy
7:55 PM 52.0°F 52.0°F 100% 30.30 in 10.0 miles SSE 5.8 mph - N/A   Scattered Clouds
8:33 PM 51.8°F 51.8°F 100% 30.30 in 10.0 miles South 6.9 mph - N/A   Overcast
8:55 PM 51.4°F 51.4°F 100% 30.30 in 10.0 miles South 5.8 mph - N/A   Overcast
9:33 PM 51.8°F 51.8°F 100% 30.29 in 10.0 miles South 8.1 mph - N/A   Overcast
9:55 PM 52.7°F 52.7°F 100% 30.29 in 10.0 miles South 8.1 mph - N/A   Overcast
10:17 PM 51.8°F 51.8°F 100% 30.28 in 10.0 miles South 10.4 mph - N/A   Scattered Clouds
10:55 PM 49.6°F 49.6°F 100% 30.28 in 10.0 miles South 10.4 mph - N/A   Clear
Moon Phase
Nov. 04 Nov. 06 Nov. 13 Nov. 20 Nov. 28
Sunrise:06:40 AM (PST) Moon Rise:09:06 PM (PST)11/4
Sunset:04:27 PM (PST) Moon Set:11:31 AM (PST)11/4

Copyright © 2014 The Weather Underground, Inc.